Home   Weather   Township of Washington   Past weeks
Flag for USA

Past Weather in Township of Washington, Indiana, USA — Yesterday and Last 2 Weeks

Now
57 °F

Overcast.


Feels Like: 54 °F
Forecast: 60 / 47 °F
Wind: 15 mph from Southeast

Location: Delaware County-Johnson Field

Current Time: May 21, 2019 at 12:53:23 pm

Latest Report: May 21, 2019 at 11:53 am


Visibility: 10 mi

Pressure: 30.11 "Hg

Humidity: 60%

Dew Point: 43 °F

Location of Township of WashingtonLocation

Past Weather in Township of Washington — Graph

°F

Township of Washington Temperature Yesterday

Maximum temperature yesterday: 65 °F (at 12:53 am)
Minimum temperature yesterday: 47 °F (at 11:53 pm)
Average temperature yesterday: 58 °F

High & Low Weather Summary for the Past Weeks

 TemperatureHumidityPressure
High88 °F (May 18, 1:53 pm)90% (May 9, 10:33 pm)30.16 "Hg (May 9, 10:33 pm)
Low40 °F (May 11, 6:53 am)32% (May 6, 5:53 pm)29.70 "Hg (May 16, 11:53 pm)
Average61 °F69%29.91 "Hg
* Reported May 6 10:53 am — May 21 10:53 am, Township of Washington. Weather by CustomWeather, © 2019

Note: Actual official high and low records may vary slightly from our data, if they occured in-between our weather recording intervals... More about our weather records

Advertising

Township of Washington Weather History for the Previous 24 Hours

Scroll right to see more
 ConditionsComfort  
Time TempWeatherWind HumidityBarometerVisibility
10:53 am
Tue, May 21
55 °FOvercast.21 mph64%30.10 "Hg10 mi
9:53 am53 °FSunny.18 mph69%30.10 "Hg10 mi
8:53 am51 °FPassing clouds.10 mph74%30.13 "Hg10 mi
7:53 am50 °FPartly sunny.14 mph74%30.12 "Hg10 mi
6:53 am50 °FSunny.8 mph71%30.14 "Hg10 mi
5:53 am50 °FClear.14 mph71%30.08 "Hg10 mi
4:53 am49 °FClear.12 mph74%30.08 "Hg10 mi
3:53 am49 °FPassing clouds.7 mph74%30.08 "Hg10 mi
3:18 am48 °FPassing clouds.5 mph80%30.12 "Hg10 mi
2:53 am48 °FOvercast.5 mph77%30.10 "Hg10 mi
2:38 am47 °FPassing clouds.6 mph80%30.10 "Hg10 mi
1:53 am47 °FClear.5 mph77%30.11 "Hg10 mi
12:53 am47 °FClear.6 mph77%30.09 "Hg10 mi
11:53 pm
Mon, May 20
47 °FClear.6 mph80%30.11 "Hg10 mi
10:53 pm48 °FClear.5 mph77%30.11 "Hg10 mi
9:53 pm51 °FClear.12 mph71%30.08 "Hg10 mi
8:53 pm53 °FPassing clouds.9 mph66%30.09 "Hg10 mi
7:53 pm56 °FOvercast.13 mph62%30.09 "Hg10 mi
6:53 pm57 °FOvercast.12 mph64%30.09 "Hg10 mi
6:05 pm57 °FMore clouds than sun.12 mph67%30.09 "Hg10 mi
5:32 pm57 °FMostly cloudy.14 mph67%30.08 "Hg10 mi
5:14 pm58 °FOvercast.12 mph65%30.07 "Hg10 mi
4:53 pm59 °FOvercast.13 mph62%30.06 "Hg10 mi
4:25 pm59 °FMostly cloudy.13 mph62%30.07 "Hg10 mi
4:02 pm59 °FOvercast.9 mph64%30.06 "Hg10 mi
2:53 pm56 °FOvercast.14 mph75%30.04 "Hg10 mi
1:53 pm58 °FMostly cloudy.14 mph67%30.03 "Hg10 mi
12:53 pm58 °FOvercast.10 mph67%30.02 "Hg10 mi
12:33 pm59 °FMostly cloudy.10 mph64%30.04 "Hg10 mi
Weather by CustomWeather, © 2019

See weather overview